Port Hope, MI

7:13 AM EST on January 24, 2018 (GMT -0500)
Port Hope

Weather History for KP58 - April, 2013

Change the Weather History Date:

Thursday, April 4, 2013

  Actual Average Record
Temperature  
Mean Temperature 42 °F -  
Max Temperature 55 °F 41 °F 57 °F (2011)
Min Temperature 30 °F 30 °F 23 °F (2007)
Degree Days  
Heating Degree Days 23    
Moisture  
Dew Point 21 °F    
Average Humidity 50    
Maximum Humidity 86    
Minimum Humidity 26    
Precipitation  
Precipitation 0.00 in - - ()
Sea Level Pressure  
Sea Level Pressure 30.10 in    
Wind  
Wind Speed 7 mph (SW)    
Max Wind Speed 17 mph    
Max Gust Speed 29 mph    
Averages and records for this station are not official NWS values.
T = Trace of Precipitation, MM = Missing Value Source: NWS Daily Summary

Daily Weather History Graph

Daily Weather History Graph

Search for Another Location

Airport or City:

Trip Planner

Search our weather history database for the weather conditions in past years. The results will help you decide how hot, cold, wet, or windy it might be!

Date:

Astronomy

Apr. 04, 2013 Rise Set
Actual Time 7:06 AM EDT 8:02 PM EDT
Civil Twilight 6:37 AM EDT 8:31 PM EDT
Nautical Twilight 6:02 AM EDT 9:06 PM EDT
Astronomical Twilight 5:25 AM EDT 9:43 PM EDT
Moon 3:44 AM EDT (4/4) 2:08 PM EDT (4/4)
Length of Visible Light 13h 54m
Length of Day
12h 55m
Waning Crescent, 34% of the Moon is Illuminated
Apr 4
Waning Crescent
Apr 10
New
Apr 18
First Quarter
Apr 25
Full
May 2
Last Quarter

Hourly Weather History & Observations

Time (EDT) Temp. Windchill Dew Point Humidity Pressure Visibility Wind Dir Wind Speed Gust Speed Precip Events Conditions
12:51 AM 30.9 °F 26.2 °F 17.1 °F 57% 30.32 in - Variable 4.6 mph - N/A   Unknown
1:51 AM 30.9 °F 26.2 °F 17.1 °F 57% 30.31 in - SSW 4.6 mph - N/A   Unknown
2:51 AM 30.9 °F 24.3 °F 16.0 °F 54% 30.29 in - SSW 6.9 mph - N/A   Unknown
3:51 AM 30.9 °F 24.3 °F 16.0 °F 54% 30.27 in - Variable 6.9 mph - N/A   Unknown
4:51 AM 30.9 °F 25.2 °F 16.0 °F 54% 30.26 in - Variable 5.8 mph - N/A   Unknown
5:51 AM 30.0 °F 25.2 °F 17.1 °F 59% 30.25 in - Variable 4.6 mph - N/A   Unknown
6:51 AM 30.0 °F 23.2 °F 17.1 °F 59% 30.25 in - Variable 6.9 mph - N/A   Unknown
7:51 AM 30.9 °F 23.5 °F 16.0 °F 54% 30.22 in - SW 8.1 mph - N/A   Unknown
8:51 AM 34.0 °F 28.8 °F 15.1 °F 46% 30.20 in - Variable 5.8 mph 18.4 mph N/A   Unknown
9:51 AM 39.0 °F 32.3 °F 15.1 °F 38% 30.15 in - SW 10.4 mph 21.9 mph N/A   Unknown
10:51 AM 43.0 °F 36.4 °F 15.1 °F 32% 30.12 in - SW 12.7 mph 25.3 mph N/A   Unknown
11:51 AM 45.0 °F 39.3 °F 18.0 °F 34% 30.08 in - SW 11.5 mph 27.6 mph N/A   Unknown
12:51 PM 48.0 °F - 19.0 °F 32% 30.04 in - WSW 10.4 mph 28.8 mph N/A   Unknown
1:51 PM 50.0 °F - 19.9 °F 31% 30.01 in - SW 17.3 mph 28.8 mph N/A   Unknown
2:51 PM 54.0 °F - 21.9 °F 29% 29.97 in - SW 8.1 mph 20.7 mph N/A   Unknown
3:51 PM 54.0 °F - 19.9 °F 26% 29.94 in - SW 15.0 mph 26.5 mph N/A   Unknown
5:51 PM 54.0 °F - 23.0 °F 30% 29.90 in - SW 13.8 mph 24.2 mph N/A   Unknown
6:51 PM 53.1 °F - 21.9 °F 30% 29.90 in - WSW 8.1 mph 19.6 mph N/A   Unknown
7:51 PM 51.1 °F - 24.1 °F 35% 29.91 in - WSW 8.1 mph - N/A   Unknown
8:51 PM 37.9 °F 28.5 °F 33.1 °F 83% 29.96 in - NNE 17.3 mph - N/A   Unknown
9:51 PM 37.0 °F 31.6 °F 33.1 °F 86% 29.98 in - NE 6.9 mph - N/A   Unknown
10:51 PM 37.9 °F - 32.0 °F 79% 29.97 in - Calm Calm - N/A   Unknown
11:51 PM 37.9 °F - 33.1 °F 83% 29.97 in - Calm Calm - N/A   Unknown